Timeline UpdatesTrip UpdatesNews PostsPvt PostsTravel TipsAdmin PostsConv PostsFollowed PostsChat RequestsBlog PostsPNR Posts

Disclaimer
Search
 
 
Thu Jul 31, 2014 21:06:45 ISTHomeTrainsΣChainsAtlasPNRForumGalleryNewsFAQTripsMembersLoginFeedback
No Recent News for this Train
Other Trains in the News **new
Latest...
Last run over.
Tue Jul 01, 2014 (04:19PM)
⇐ Return Journey: Train# 13112

13111/Lal Quila Express

TRAIN IS CANCELLED
Change Departure Station:
Change Arrival Station:
Post a Train Travel TipPost a Train Travel Tip **new
Post a Comment/Question/Picture/VideoPost a Comment/Question/Picture/Video
Pantry/Catering
✕ NO Pantry Car
✓ Catering Avbl
RSA - Rake Sharing
Rake/Coach Composition
LOCO-S1-B1-SLR-GEN-S2-S3-S4-B2-GEN-GEN-RMS-SLR [S1,B1 detached at MDP] ; :Entry# 618089-32
Loco
WAP4 HOWRAH/GHAZIABAD SHED
Train will Run till Jun 30 (subject to further announcements)
News    PNR    Forum    Time-Table    Availability    Fare Chart    Map    Arr/Dep History    Trips    Gallery    ΣChains    X/O    Timeline    
Travel Time: 3h 12m    3 halts    Distance: 205 km    Avg Speed: 64 km/hr
Type: Mail/Express
Zone: ER/Eastern
Departs @ 20:15 (Avg 13m late)
Platform# 3
SMTWTFS
Kolkata Chitpur/KOAA 
Arrives @ 23:27 (Avg 50m late)
Platform# 4
SMTWTFS
Asansol Junction/ASN 

3 halts. 55 intermediate Stations between Kolkata Chitpur and Asansol Junction

Show ALL intermediate Stations  Show Old Time-Table

#CodeStation NameX/OArrivesAvgDepartsAvgHaltPFDay#KmSpeedElevZoneAddress
1KOAA»Kolkata Chitpur (5)»  -20:15+13310.0316mERKolkata, West Bengal
2DAKEDakhineswar (2)  20:34+1920:35+201m119.96410mERDist - 24 paraganas ( North ), West Bengal
3BWNBarddhaman Junction (8)  21:58+3922:03+405m1198.68434mERDist - Barddhaman, West Bengal
4RNGRaniGanj (4)  23:06+4923:07+511m21186.45492mERRaniganj, West Bengal
5ASN•Asansol Junction (7)•  23:27+5023:32+545m41204.650113mERDist - bardhaman, West Bengal
6CRJChittaranjan (3)  00:02+5800:03+591m32229.766182mERMihijam, Jharkhand
7JMTJamtara (2)  00:16+5500:17+1:001m12244.059201mERJamtara, Jharkhand
8MDPMadhupur Junction (4)01:00+1:0501:40+1:0540m22286.073254mER06432-224478, Jharkhand
9JSMEJasidih Junction (5)  02:04+1:1302:09+1:135m22315.152271mERJasidih, Jharkhand
10JAJJhajha (4)  03:00+1:0703:05+1:105m--2359.274143mECRJhajha, Bihar
11JMUJamui (3)  03:26+1:1403:27+1:161m--2385.26881mECRState Highway 72, Bihar
12KIULKiul Junction (5)  03:51+1:1903:55+1:224m--2412.51253mECRDist. Lakhisarai, Bihar
13LKRLuckeesarai Junction (2)  04:02+1:2404:03+1:251m--2413.96552mECRLakhisarai, Bihar
14BRYABarhiya (3)  04:17+1:3504:18+1:361m--2429.05947mECRBarahiya, Bihar
15MKAMokama Junction (3)  04:36+1:4304:40+1:434m--2446.78648mECRPatna, Bihar
16BARHBarh (3)  04:58+1:5304:59+1:581m--2472.66849mECRBarh, Bihar
17BKPBakhtiyarpur Junction (5)  05:15+2:0005:19+2:034m--2490.97751mECRPatna, Bihar
18FUTFatwa (6)  05:37+2:2405:38+2:291m--2513.94653mECRPatna, Bihar
19BKGBanka Ghat (2)  05:46+2:2705:47+2:291m--2520.05356mECRPatna, Bihar
20PNCPatna Saheb (3)  05:54+2:2105:55+2:241m--2526.12059mECRPatna, Bihar
21GZHGulzarbagh (3)  06:04+2:2906:05+2:331m--2529.22855mECRPatna, Bihar
22RJPBRajendra Nagar Bihar (4)  06:14+2:2706:16+2:282m--2533.4555mECRPatna 800001, Bihar
23PNBEPatna Junction (10)  06:50+1:5907:00+2:0210m42536.03857mECRPatna 800001, Bihar
24DNRDanapur (5)  07:15+2:2407:35+2:3220m--2545.48758mECRKhagaul, Bihar
25BTABihta (2)  07:47+2:4007:48+2:411m--2562.75862mECRDistt: Patna, Bihar
26KWRKoelwar (2)  07:57+2:0907:58+2:101m--2571.54365mECRNational Highway 30, Bihar
27KUAKulharia (2)  08:03+2:4108:04+2:431m--2575.05461mECRChandi Sahar Rd, Bihar
28ARAAra Junction (3)  08:15+2:3608:20+2:365m--2584.99263mECRarrah( 06182-233411), Bihar
29BEABihiya (3)  08:34+2:5208:35+2:571m--2606.35167mECRBehea, Bihar
30BYNBanahi (2)  08:42+3:0108:43+3:011m--2612.35967mECRBanahi, Bihar
31RPRRaghunathpur (4)  08:52+3:0008:53+3:011m--2621.17469mECRRaghunathpur, Bihar
32DUREDumraon (3)  09:06+2:5509:07+2:591m--2637.12970mECRDumraon, Bihar
33BXRBuxar (3)  09:41+2:4709:46+2:505m22653.47367mECRBuxar, Bihar
34CSAChausa (2)  09:55+2:5009:56+2:521m--2664.44368mECRState Highway 14, Bihar
35GMRGahmar (2)  10:09+2:5610:10+2:571m--2673.63868mECRDistt: Ghazipur, Uttar Pradesh
36BWHBhadaura (2)  10:23+2:5010:24+2:531m--2681.84769mECRGhazipur, Uttar Pradesh
37DLNDildarnagar Junction (2)  10:34+2:4610:36+2:472m--2689.64072mECRDildarnagar, Uttar Pradesh
38ZNAZamania (2)  10:56+2:4410:57+2:481m--2703.13877mECRGhazipur, Uttar Pradesh
39MGSMughal Sarai Junction (8)  12:07+2:1212:27+2:1320m42747.35383mECRMughalsarai 232101, Uttar Pradesh
40CARChunar Junction (5)  13:03+3:1713:04+3:231m22779.25485mNCRChunar Junction, Uttar Pradesh
41MZPMirzapur (3)  13:39+3:4313:40+3:471m--2810.54088mNCRMirzapur, Uttar Pradesh
42BDLVindhyachal (3)  13:51+3:5813:52+4:011m--2817.87288mNCRMirzapur, Uttar Pradesh
43MNFManda Road  14:15+4:1614:16+4:181m--2845.46593mNCRNH 76, Uttar Pradesh
44MJAMeja Road (4)  14:31+4:2214:32+4:231m--2861.67294mNCRDistrict Allahabad, Uttar Pradesh
45NYNNaini Junction (4)  14:58+4:3915:00+4:402m22892.62198mNCRAllahabad, Uttar Pradesh
46ALDAllahabad Junction (10)  15:20+4:1215:30+4:1510m32899.760100mNCRAllahabad 211003, Uttar Pradesh
47BREBharwari  16:07+5:0216:08+5:071m--2936.864108mNCRBharwari, Uttar Pradesh
48SROSirathu (2)  16:27+4:5916:28+5:011m12956.978109mNCRSirathu, Uttar Pradesh
49KGAKhaga (3)  16:47+4:5616:48+5:031m--2981.867114mNCRFatehpur, Uttar Pradesh
50RUBRasulabad  17:01+5:0317:02+4:581m--2996.355118mNCRRasulabad, Uttar Pradesh
51FTPFatehpur (3)  17:24+5:0717:25+5:121m321016.469120mNCRFatehpur, Uttar Pradesh
52MWHMalwan (2)  17:39+5:1317:40+5:071m--21032.665122mNCRFatehpur, Uttar Pradesh
53BKOBindki Road  17:54+5:0117:55+5:041m--21047.753124mNCRFatehpur, Uttar Pradesh
54KBNKarbigwan  18:09+5:0518:10+5:131m--21060.045121mNCRFatehpur, Uttar Pradesh
55CNBKanpur Central (10)  18:55+4:3819:05+4:4210m--21094.119128mNCRKANPUR-208 001, Uttar Pradesh
56GOYGovindpuri Junction (2)  19:17+5:2119:18+5:211m121097.846129mNCRKANPUR-208 006, Uttar Pradesh
57PNKPanki (3)  19:28+5:2619:29+5:281m--21105.578129mNCRKANPUR-208 020, Uttar Pradesh
58PHDPhaphund (4)  20:24+4:1920:25+4:241m321177.199146mNCRdist. Auraiya, Uttar Pradesh
59ETWEtawah (5)  20:59+5:0921:00+5:091m221233.385154mNCRDistt. Etawah, Uttar Pradesh
60SKBShikohabad Junction (4)  21:39+5:0821:40+5:171m321288.729166mNCRDistrict Firozabad, Uttar Pradesh
61FZDFirozabad (4)  22:21+4:5522:22+5:031m321308.643164mNCRFirozabad, Uttar Pradesh
62TDLTundla Junction (5)  22:45+5:1522:55+5:3310m221325.182167mNCRDistt.Firozabad, Uttar Pradesh
63HRSHathras Junction (3)  23:30+5:2523:31+5:321m--21373.167183mNCRMahamaya Nagar(05722-242803), Uttar Pradesh
64ALJNAligarh Junction (4)  23:58+5:2500:03+5:285m321403.371192mNCRAligarh, Uttar Pradesh
65KRJKhurja Junction (4)  00:40+6:1000:45+6:085m231446.838199mNCRBulandshahr, Uttar Pradesh
66GZBGhaziabad Junction (6)  02:23+5:0602:25+5:062m531509.427217mNRGhaziabad, Uttar Pradesh
67DLIOld Delhi Junction (16)  03:10+5:18-731529.5-219mNRNear Chandni Chowk Metro Station, Delhi NCT
Scroll to Top
Scroll to Bottom